Date String (YYYY-MM-DD hh:mm:ss) UTC,Instrument flags,absolute air pressure of the measurement (hPa),sample flow rate (lpm),inlet stack bypass flow (lpm),air temperature of the measurement (°C),ambient temperature measured by the external sensor (°C),aerosol sample conditioner tube jacket temperature (°C),OPC LED temperature (°C),internal box temperature (°C),relative humidity of the measurement (%),span deviation,mass concentration of particles derived from Lorenz-Mie calculation of OPC scattering (μg/m³),mass concentration of particles derived from Lorenz-Mie calculation of OPC scattering (μg/m³),mass concentration of particles derived from Lorenz-Mie calculation of OPC scattering (μg/m³)
DateTimeUTC,F1_M11,P_M11,Q1_M11,Q2_M11,T1_M11,T2_M11,T3_M11,T4_M11,T5_M11,U1_M11,ZSPAN_M11,X0_M11,X2_M11,X1_M11
2024-02-03 21:00:00,SystemResetWarning,0813.8,5.01,000.00,021.0,020.3,000.0,029.5,022.8,23.6,0000.0,0000.31,0000.19,0000.16
2024-02-03 21:01:00,SystemResetWarning,0813.8,5.01,000.00,021.0,020.4,000.0,029.5,022.8,23.6,0000.0,0000.31,0000.21,0000.18
2024-02-03 21:02:00,SystemResetWarning,0813.8,5.00,000.00,021.0,020.4,000.0,029.5,022.8,23.6,0000.0,0000.33,0000.23,0000.20
2024-02-03 21:03:00,SystemResetWarning,0813.9,4.99,000.00,021.0,020.3,000.0,029.5,022.8,23.7,0000.0,0000.38,0000.26,0000.23
2024-02-03 21:04:00,SystemResetWarning,0813.9,4.99,000.00,021.0,020.3,000.0,029.5,022.8,23.7,0000.0,0000.45,0000.30,0000.26
2024-02-03 21:05:00,SystemResetWarning,0813.9,5.02,000.00,021.0,020.3,000.0,029.5,022.8,23.7,0000.0,0000.51,0000.34,0000.28
2024-02-03 21:06:00,SystemResetWarning,0813.9,4.99,000.00,021.0,020.4,000.0,029.5,022.8,23.7,0000.0,0000.54,0000.37,0000.31
2024-02-03 21:07:00,SystemResetWarning,0813.9,4.99,000.00,021.0,020.4,000.0,029.5,022.8,24.1,0000.0,0000.58,0000.40,0000.34
2024-02-03 21:08:00,SystemResetWarning,0814.0,5.01,000.00,021.0,020.4,000.0,029.5,022.8,25.5,0000.0,0000.65,0000.45,0000.38
2024-02-03 21:09:00,SystemResetWarning,0813.9,5.01,000.00,021.0,020.3,000.0,029.5,022.8,24.6,0000.0,0000.72,0000.51,0000.43
2024-02-03 21:10:00,SystemResetWarning,0813.9,4.99,000.00,021.0,020.3,000.0,029.5,022.8,24.1,0000.0,0000.77,0000.55,0000.47
2024-02-03 21:11:00,SystemResetWarning,0813.9,4.99,000.00,021.0,020.3,000.0,029.4,022.7,24.0,0000.0,0000.80,0000.58,0000.52
2024-02-03 21:12:00,SystemResetWarning,0813.9,5.00,000.00,021.0,020.3,000.0,029.4,022.7,24.0,0000.0,0001.19,0000.65,0000.57
2024-02-03 21:13:00,SystemResetWarning,0813.9,5.00,000.00,021.0,020.3,000.0,029.4,022.7,24.0,0000.0,0001.27,0000.71,0000.63
2024-02-03 21:14:00,SystemResetWarning,0814.0,5.00,000.00,021.0,020.3,000.0,029.4,022.7,24.0,0000.0,0001.38,0000.78,0000.70
2024-02-03 21:15:00,SystemResetWarning,0814.0,5.01,000.00,021.0,020.3,000.0,029.4,022.7,24.0,0000.0,0001.51,0000.88,0000.77
2024-02-03 21:16:00,SystemResetWarning,0814.0,4.99,000.00,021.0,020.3,000.0,029.4,022.7,23.9,0000.0,0001.60,0000.94,0000.82
2024-02-03 21:17:00,SystemResetWarning,0814.0,4.99,000.00,021.0,020.3,000.0,029.4,022.7,24.0,0000.0,0001.69,0001.01,0000.88
2024-02-03 21:18:00,SystemResetWarning,0814.0,5.00,000.00,021.0,020.3,000.0,029.4,022.7,23.9,0000.0,0001.83,0001.08,0000.93
2024-02-03 21:19:00,SystemResetWarning,0814.1,5.01,000.00,021.0,020.3,000.0,029.4,022.7,23.9,0000.0,0001.96,0001.14,0000.97
2024-02-03 21:20:00,SystemResetWarning,0814.1,5.00,000.00,021.0,020.3,000.0,029.4,022.7,23.9,0000.0,0002.02,0001.18,0001.02
2024-02-03 21:21:00,SystemResetWarning,0814.1,5.00,000.00,021.0,020.3,000.0,029.4,022.7,23.9,0000.0,0002.06,0001.22,0001.04
2024-02-03 21:22:00,SystemResetWarning,0814.1,5.01,000.00,021.0,020.3,000.0,029.4,022.7,23.9,0000.0,0002.09,0001.25,0001.08
2024-02-03 21:23:00,SystemResetWarning,0814.1,4.99,000.00,021.0,020.3,000.0,029.4,022.7,23.9,0000.0,0001.83,0001.29,0001.12
2024-02-03 21:24:00,SystemResetWarning,0814.1,5.00,000.00,021.0,020.3,000.0,029.4,022.7,23.9,0000.0,0001.92,0001.36,0001.17
2024-02-03 21:25:00,SystemResetWarning,0814.2,5.00,000.00,021.0,020.3,000.0,029.4,022.7,23.9,0000.0,0002.01,0001.42,0001.21
2024-02-03 21:26:00,SystemResetWarning,0814.2,5.00,000.00,021.0,020.3,000.0,029.4,022.7,23.9,0000.0,0001.98,0001.42,0001.24
2024-02-03 21:27:00,SystemResetWarning,0814.2,5.00,000.00,021.0,020.3,000.0,029.4,022.7,23.9,0000.0,0001.96,0001.43,0001.28
2024-02-03 21:28:00,SystemResetWarning,0814.2,5.00,000.00,021.0,020.3,000.0,029.4,022.7,23.9,0000.0,0002.02,0001.46,0001.31
2024-02-03 21:29:00,SystemResetWarning,0814.3,5.00,000.00,021.0,020.3,000.0,029.4,022.7,23.9,0000.0,0002.04,0001.49,0001.32
2024-02-03 21:30:00,SystemResetWarning,0814.3,5.00,000.00,021.0,020.3,000.0,029.4,022.7,23.9,0000.0,0002.00,0001.50,0001.34
2024-02-03 21:31:00,SystemResetWarning,0814.3,5.01,000.00,021.0,020.3,000.0,029.4,022.7,23.9,0000.0,0002.01,0001.52,0001.36
2024-02-03 21:32:00,SystemResetWarning,0814.4,4.99,000.00,021.0,020.3,000.0,029.4,022.7,23.9,0000.0,0002.10,0001.56,0001.39
2024-02-03 21:33:00,SystemResetWarning,0814.3,4.99,000.00,021.0,020.3,000.0,029.4,022.7,23.9,0000.0,0002.16,0001.59,0001.40
2024-02-03 21:34:00,SystemResetWarning,0814.3,5.00,000.00,021.0,020.3,000.0,029.3,022.7,23.9,0000.0,0002.20,0001.61,0001.41
2024-02-03 21:35:00,SystemResetWarning,0814.3,4.99,000.00,021.0,020.3,000.0,029.3,022.7,23.9,0000.0,0002.14,0001.58,0001.40
2024-02-03 21:36:00,SystemResetWarning,0814.4,5.00,000.00,021.0,020.3,000.0,029.4,022.7,23.9,0000.0,0002.09,0001.55,0001.38
2024-02-03 21:37:00,SystemResetWarning,0814.4,5.00,000.00,021.0,020.3,000.0,029.3,022.7,23.9,0000.0,0002.00,0001.49,0001.34
2024-02-03 21:38:00,SystemResetWarning,0814.4,5.00,000.00,021.0,020.3,000.0,029.4,022.7,23.9,0000.0,0001.99,0001.47,0001.31
2024-02-03 21:39:00,SystemResetWarning,0814.5,5.00,000.00,021.0,020.3,000.0,029.4,022.7,23.9,0000.0,0001.99,0001.45,0001.29
2024-02-03 21:40:00,SystemResetWarning,0814.5,5.00,000.00,021.0,020.3,000.0,029.3,022.7,23.9,0000.0,0001.92,0001.42,0001.28
2024-02-03 21:41:00,SystemResetWarning,0814.5,5.00,000.00,021.0,020.3,000.0,029.4,022.7,23.9,0000.0,0001.83,0001.37,0001.25
2024-02-03 21:42:00,SystemResetWarning,0814.6,5.00,000.00,021.0,020.3,000.0,029.4,022.7,23.8,0000.0,0001.74,0001.32,0001.22
2024-02-03 21:43:00,SystemResetWarning,0814.6,5.00,000.00,021.0,020.3,000.0,029.4,022.7,23.8,0000.0,0001.70,0001.28,0001.19
2024-02-03 21:44:00,SystemResetWarning,0814.6,5.00,000.00,021.0,020.3,000.0,029.4,022.7,23.8,0000.0,0001.61,0001.24,0001.17
2024-02-03 21:45:00,SystemResetWarning,0814.6,5.00,000.00,021.0,020.3,000.0,029.4,022.7,23.8,0000.0,0001.54,0001.21,0001.14
2024-02-03 21:46:00,SystemResetWarning,0814.7,5.01,000.00,021.0,020.3,000.0,029.3,022.7,23.8,0000.0,0001.47,0001.16,0001.11
2024-02-03 21:47:00,SystemResetWarning,0814.7,5.00,000.00,021.0,020.3,000.0,029.4,022.7,23.8,0000.0,0001.49,0001.15,0001.09
2024-02-03 21:48:00,SystemResetWarning,0814.8,5.00,000.00,021.0,020.3,000.0,029.4,022.7,23.8,0000.0,0001.45,0001.13,0001.07
2024-02-03 21:49:00,SystemResetWarning,0814.8,5.00,000.00,021.0,020.3,000.0,029.4,022.7,23.8,0000.0,0001.42,0001.10,0001.04
2024-02-03 21:50:00,SystemResetWarning,0814.8,4.99,000.00,021.0,020.3,000.0,029.4,022.7,23.8,0000.0,0001.35,0001.05,0001.00
2024-02-03 21:51:00,SystemResetWarning,0814.8,5.00,000.00,021.0,020.3,000.0,029.4,022.7,23.8,0000.0,0001.32,0001.02,0000.96
2024-02-03 21:52:00,SystemResetWarning,0814.9,5.00,000.00,021.0,020.3,000.0,029.4,022.7,23.8,0000.0,0001.29,0000.99,0000.93
2024-02-03 21:53:00,SystemResetWarning,0814.9,5.00,000.00,021.0,020.3,000.0,029.4,022.7,23.8,0000.0,0001.27,0000.97,0000.90
2024-02-03 21:54:00,SystemResetWarning,0814.9,5.00,000.00,021.0,020.3,000.0,029.4,022.7,23.8,0000.0,0001.24,0000.94,0000.86
2024-02-03 21:55:00,SystemResetWarning,0815.0,5.00,000.00,021.0,020.3,000.0,029.4,022.7,23.8,0000.0,0001.17,0000.89,0000.80
2024-02-03 21:56:00,SystemResetWarning,0815.0,5.01,000.00,021.0,020.3,000.0,029.4,022.7,23.7,0000.0,0001.20,0000.85,0000.75
2024-02-03 21:57:00,SystemResetWarning,0814.9,5.00,000.00,021.0,020.3,000.0,029.4,022.7,23.7,0000.0,0001.17,0000.80,0000.69
2024-02-03 21:58:00,SystemResetWarning,0814.9,5.00,000.00,021.0,020.3,000.0,029.4,022.7,23.7,0000.0,0001.05,0000.72,0000.64
2024-02-03 21:59:00,SystemResetWarning,0815.0,5.00,000.00,021.0,020.3,000.0,029.4,022.7,23.7,0000.0,0001.01,0000.69,0000.60
